CAPE
10 0 0 0 0 0 0 0 0 0 0 0 0 0 0 0 0 0 0 0 0 0
9 0 0 0 0 0 0 0 0 0 0 0 0 0 0 0 0 0 0 0 0 0
0 0 0 0 0 0 0 0 0 0 0 0 0 0 0 0 0 0 0 0 0 0
1 0 0 0 0 0 0 0 0 0 0 0 0 0 0 0 0 0 0 0 0 0
1 0 0 0 0 0 0 0 0 0 0 0 0 0 0 0 0 0 0 0 0 0
3 1 0 0 0 0 0 0 0 0 0 0 0 0 0 0 0 0 0 0 0 0
1 1 1 0 0 0 0 0 0 0 0 0 0 0 0 0 0 0 0 0 0 0
3 0 0 0 0 0 0 0 0 0 0 0 0 0 0 0 0 0 0 0 0 0
0 0 0 0 0 0 0 0 0 0 0 0 0 0 0 0 0 0 0 0 0 0
0 0 0 0 0 0 0 0 0 0 0 0 0 0 0 0 0 0 0 0 0 0
0 0 0 0 0 0 0 0 0 0 0 0 0 0 0 0 0 0 0 0 0 0
0 0 0 0 0 0 0 0 0 0 0 0 0 0 0 0 0 0 0 0 0 0
0 0 0 0 0 0 0 0 0 0 0 0 0 0 0 0 0 0 0 0 0 0
0 0 0 0 0 0 0 0 0 0 0 0 0 0 0 0 0 0 0 0 0 0
CIN
-12 -0 -0 -0 -0 -0 -0 -0 -0 -0 -0 -0 -0 -0 -0 -0 -0 -0 -0 -0 -0 -0
-29 -0 -0 -0 -0 -0 -0 -0 -0 -0 -0 -0 -0 -0 -0 -0 -0 -0 -0 -0 -0 -0
-0 -0 -0 -0 -0 -0 -0 -0 -0 -0 -0 -0 -0 -0 -0 -0 -0 -0 -0 -0 -0 -0
-0 -0 -0 -0 -0 -0 -0 -0 -0 -0 -0 -0 -0 -0 -0 -0 -0 -0 -0 -0 -0 -0
-0 -0 -0 -0 -0 -0 -0 -0 -0 -0 -0 -0 -0 -0 -0 -0 -0 -0 -0 -0 -0 -0
-0 -0 -0 -0 -0 -0 -0 -0 -0 -0 -0 -0 -0 -0 -0 -0 -0 -0 -0 -0 -0 -0
-0 -0 -0 -0 -0 -0 -0 -0 -0 -0 -0 -0 -0 -0 -0 -0 -0 -0 -0 -0 -0 -0
-0 -0 -0 -0 -0 -0 -0 -0 -0 -0 -0 -0 -0 -0 -0 -0 -0 -0 -0 -0 -0 -0
-0 -0 -0 -0 -0 -0 -0 -0 -0 -0 -0 -0 -0 -0 -0 -0 -0 -0 -0 -0 -0 -0
-0 -0 -0 -0 -0 -0 -0 -0 -0 -0 -0 -0 -0 -0 -0 -0 -0 -0 -0 -0 -0 -0
-0 -0 -0 -0 -0 -0 -0 -0 -0 -0 -0 -0 -0 -0 -0 -0 -0 -0 -0 -0 -0 -0
-0 -0 -0 -0 -0 -0 -0 -0 -0 -0 -0 -0 -0 -0 -0 -0 -0 -0 -0 -0 -0 -0
-0 -0 -0 -0 -0 -0 -0 -0 -0 -0 -0 -0 -0 -0 -0 -0 -0 -0 -0 -0 -0 -0
-0 -0 -0 -0 -0 -0 -0 -0 -0 -0 -0 -0 -0 -0 -0 -0 -0 -0 -0 -0 -0 -0
Wind_Speed
16 11 11 13 11 10 11 10 8 7 6 8 9 9 8 9 5 6 5 8 4 4
14 13 11 13 11 9 9 8 9 9 8 8 10 10 11 9 8 7 6 6 7 5
13 12 12 12 14 13 10 12 12 10 8 6 9 11 12 11 9 11 5 5 8 7
10 12 12 12 13 13 13 14 13 13 10 7 9 10 13 12 11 11 9 5 8 8
11 13 12 12 13 14 14 13 12 12 11 9 9 9 13 13 11 11 9 7 9 8
11 13 14 14 14 14 14 13 12 10 8 11 10 10 10 12 10 10 10 8 8 7
13 13 14 14 15 15 14 13 12 11 10 9 10 11 10 12 10 10 10 8 8 8
13 14 14 16 15 15 13 11 13 12 10 10 11 8 11 11 11 11 11 8 9 7
17 15 15 14 15 14 13 12 12 13 12 10 6 18 19 14 10 10 9 9 6 6
15 15 15 15 15 14 14 13 13 12 12 10 10 18 19 17 8 8 7 8 7 6
16 15 14 14 14 14 13 14 12 11 10 10 9 18 18 17 9 7 8 7 5 6
14 13 13 14 13 13 14 12 10 9 10 10 9 16 17 12 8 8 7 5 4 5
12 12 12 13 13 12 13 12 9 9 7 12 9 15 15 11 6 7 5 4 5 8
11 13 12 13 12 12 12 11 10 9 6 6 6 8 13 12 4 5 5 4 3 1
Wind_Direction
183 164 163 164 163 165 161 160 155 145 136 143 139 127 128 101 99 114 106 105 94 89
171 162 162 163 165 160 154 143 136 129 130 139 131 126 118 117 116 104 98 98 93 92
146 158 155 149 158 150 146 136 130 121 117 131 123 125 115 113 109 109 98 96 102 88
138 137 143 144 144 144 134 134 136 133 119 141 126 130 117 113 115 106 100 98 100 86
136 138 137 140 139 141 129 119 120 120 126 122 118 120 119 116 105 125 114 103 93 89
142 137 133 133 128 125 126 125 117 117 121 121 121 111 106 111 116 106 100 105 106 100
137 136 137 130 125 114 117 120 118 114 119 111 107 103 107 104 112 111 103 98 106 103
122 122 122 119 110 105 107 109 113 111 106 110 105 127 121 118 117 110 98 101 95 102
119 116 110 102 109 106 104 109 114 109 112 102 113 129 124 114 113 109 113 115 117 95
105 104 104 106 107 114 117 119 105 101 100 115 127 118 113 115 109 114 121 127 111 99
98 100 101 108 113 113 112 103 101 103 110 103 108 122 125 119 111 116 99 99 128 125
95 102 111 112 114 109 102 100 95 97 98 102 115 130 125 121 111 98 96 116 132 118
106 110 114 111 101 100 101 104 103 91 93 117 123 130 128 114 108 114 115 95 75 117
108 110 109 107 107 103 103 103 102 101 85 88 99 120 128 137 120 120 115 105 89 31